Date String (YYYY-MM-DD hh:mm:ss) UTC,Instrument flags,absolute air pressure of the measurement (hPa),sample flow rate (lpm),inlet stack bypass flow (lpm),air temperature of the measurement (°C),ambient temperature measured by the external sensor (°C),aerosol sample conditioner tube jacket temperature (°C),OPC LED temperature (°C),internal box temperature (°C),relative humidity of the measurement (%),span deviation,mass concentration of particles derived from Lorenz-Mie calculation of OPC scattering (μg/m³),mass concentration of particles derived from Lorenz-Mie calculation of OPC scattering (μg/m³),mass concentration of particles derived from Lorenz-Mie calculation of OPC scattering (μg/m³)
DateTimeUTC,F1_M11,P_M11,Q1_M11,Q2_M11,T1_M11,T2_M11,T3_M11,T4_M11,T5_M11,U1_M11,ZSPAN_M11,X2_M11,X0_M11,X1_M11
2024-01-24 07:00:00,SystemResetWarning,0826.0,5.00,000.00,024.4,023.5,000.0,032.9,025.6,16.6,0002.5,0008.15,0013.40,0007.44
2024-01-24 07:01:00,SystemResetWarning,0826.0,5.00,000.00,024.4,023.4,000.0,032.8,025.6,16.6,0002.4,0008.21,0013.64,0007.45
2024-01-24 07:02:00,SystemResetWarning,0826.0,4.99,000.00,024.3,023.4,000.0,032.8,025.6,16.6,0002.5,0008.25,0013.72,0007.45
2024-01-24 07:03:00,SystemResetWarning,0825.9,5.00,000.00,024.3,023.5,000.0,032.8,025.6,16.6,0002.2,0008.27,0013.65,0007.45
2024-01-24 07:04:00,SystemResetWarning,0825.9,4.99,000.00,024.3,023.5,000.0,032.8,025.6,16.7,0002.3,0008.31,0012.65,0007.47
2024-01-24 07:05:00,SystemResetWarning,0825.9,5.00,000.00,024.3,023.5,000.0,032.8,025.6,16.7,0002.0,0008.36,0013.50,0007.46
2024-01-24 07:06:00,SystemResetWarning,0825.9,5.00,000.00,024.3,023.5,000.0,032.8,025.6,16.7,0001.8,0008.36,0013.79,0007.46
2024-01-24 07:07:00,SystemResetWarning,0825.9,5.00,000.00,024.3,023.5,000.0,032.8,025.7,16.7,0002.0,0008.35,0013.92,0007.46
2024-01-24 07:08:00,SystemResetWarning,0825.9,5.01,000.00,024.3,023.5,000.0,032.8,025.7,16.7,0002.4,0008.35,0013.87,0007.48
2024-01-24 07:09:00,SystemResetWarning,0825.9,5.00,000.00,024.3,023.5,000.0,032.8,025.7,16.7,0002.7,0008.43,0014.29,0007.49
2024-01-24 07:10:00,SystemResetWarning,0825.9,5.00,000.00,024.3,023.5,000.0,032.8,025.7,16.7,0002.5,0008.45,0014.37,0007.50
2024-01-24 07:11:00,SystemResetWarning,0825.9,5.01,000.00,024.3,023.5,000.0,032.8,025.7,16.7,0002.1,0008.44,0014.88,0007.52
2024-01-24 07:12:00,SystemResetWarning,0825.9,5.00,000.00,024.3,023.5,000.0,032.8,025.7,16.7,0001.8,0008.45,0014.73,0007.57
2024-01-24 07:13:00,SystemResetWarning,0825.9,5.00,000.00,024.3,023.5,000.0,032.8,025.6,16.7,0001.8,0008.44,0014.57,0007.61
2024-01-24 07:14:00,SystemResetWarning,0825.9,5.00,000.00,024.3,023.5,000.0,032.8,025.6,16.7,0001.9,0008.45,0014.59,0007.65
2024-01-24 07:15:00,SystemResetWarning,0825.9,5.00,000.00,024.3,023.5,000.0,032.7,025.7,16.7,0002.0,0008.47,0014.71,0007.67
2024-01-24 07:16:00,SystemResetWarning,0826.0,5.00,000.00,024.3,023.5,000.0,032.7,025.7,16.7,0002.1,0008.48,0014.38,0007.71
2024-01-24 07:17:00,SystemResetWarning,0826.0,5.00,000.00,024.3,023.5,000.0,032.7,025.7,16.7,0002.8,0008.52,0014.41,0007.75
2024-01-24 07:18:00,SystemResetWarning,0825.9,4.99,000.00,024.3,023.5,000.0,032.7,025.7,16.6,0002.9,0008.59,0014.77,0007.78
2024-01-24 07:19:00,SystemResetWarning,0825.9,5.00,000.00,024.3,023.5,000.0,032.7,025.7,16.6,0003.0,0008.65,0015.06,0007.81
2024-01-24 07:20:00,SystemResetWarning,0825.9,5.00,000.00,024.3,023.5,000.0,032.7,025.7,16.6,0003.0,0008.61,0014.61,0007.82
2024-01-24 07:21:00,SystemResetWarning,0825.9,4.99,000.00,024.3,023.5,000.0,032.7,025.7,16.6,0003.0,0008.57,0014.58,0007.82
2024-01-24 07:22:00,SystemResetWarning,0825.9,5.00,000.00,024.3,023.5,000.0,032.7,025.7,16.6,0002.9,0008.56,0014.41,0007.79
2024-01-24 07:23:00,SystemResetWarning,0825.9,5.00,000.00,024.4,023.5,000.0,032.7,025.7,16.6,0003.1,0008.49,0014.13,0007.74
2024-01-24 07:24:00,SystemResetWarning,0825.9,4.99,000.00,024.4,023.5,000.0,032.7,025.7,16.6,0003.2,0008.44,0014.72,0007.68
2024-01-24 07:25:00,SystemResetWarning,0825.9,4.99,000.00,024.4,023.5,000.0,032.7,025.7,16.7,0003.0,0008.40,0014.66,0007.64
2024-01-24 07:26:00,SystemResetWarning,0825.9,4.99,000.00,024.4,023.5,000.0,032.7,025.7,16.6,0002.6,0008.35,0014.58,0007.59
2024-01-24 07:27:00,SystemResetWarning,0825.9,5.01,000.00,024.4,023.5,000.0,032.7,025.7,16.6,0002.5,0008.35,0015.11,0007.58
2024-01-24 07:28:00,SystemResetWarning,0825.9,5.01,000.00,024.4,023.5,000.0,032.7,025.7,16.6,0001.9,0008.31,0014.73,0007.60
2024-01-24 07:29:00,SystemResetWarning,0825.9,5.01,000.00,024.4,023.5,000.0,032.7,025.7,16.6,0001.5,0008.28,0014.64,0007.59
2024-01-24 07:30:00,SystemResetWarning,0825.9,4.99,000.00,024.4,023.5,000.0,032.7,025.7,16.6,0001.5,0008.23,0014.25,0007.60
2024-01-24 07:31:00,SystemResetWarning,0825.9,4.99,000.00,024.4,023.4,000.0,032.7,025.8,16.6,0001.3,0008.25,0014.73,0007.62
2024-01-24 07:32:00,SystemResetWarning,0825.9,5.00,000.00,024.4,023.4,000.0,032.7,025.7,16.6,0001.6,0008.29,0015.04,0007.64
2024-01-24 07:33:00,SystemResetWarning,0825.9,5.00,000.00,024.4,023.4,000.0,032.7,025.7,16.6,0001.7,0008.36,0015.06,0007.68
2024-01-24 07:34:00,SystemResetWarning,0825.9,5.00,000.00,024.4,023.4,000.0,032.7,025.7,16.7,0002.0,0008.41,0015.10,0007.72
2024-01-24 07:35:00,SystemResetWarning,0825.9,5.00,000.00,024.3,023.4,000.0,032.7,025.7,16.7,0002.0,0008.45,0015.00,0007.76
2024-01-24 07:36:00,SystemResetWarning,0825.8,5.01,000.00,024.3,023.3,000.0,032.7,025.6,16.7,0001.9,0008.53,0015.17,0007.80
2024-01-24 07:37:00,SystemResetWarning,0825.9,5.00,000.00,024.3,023.3,000.0,032.7,025.6,16.7,0002.5,0008.62,0015.43,0007.85
2024-01-24 07:38:00,SystemResetWarning,0825.9,5.01,000.00,024.3,023.3,000.0,032.7,025.7,16.7,0002.2,0008.61,0015.05,0007.89
2024-01-24 07:39:00,SystemResetWarning,0825.9,5.00,000.00,024.3,023.3,000.0,032.7,025.6,16.8,0002.1,0008.61,0015.07,0007.89
2024-01-24 07:40:00,SystemResetWarning,0825.9,4.99,000.00,024.3,023.3,000.0,032.7,025.6,16.8,0002.3,0008.63,0015.67,0007.88
2024-01-24 07:41:00,SystemResetWarning,0825.9,5.00,000.00,024.3,023.2,000.0,032.7,025.6,16.8,0002.2,0008.63,0015.88,0007.88
2024-01-24 07:42:00,SystemResetWarning,0825.9,5.00,000.00,024.3,023.2,000.0,032.7,025.6,16.8,0002.4,0008.67,0016.87,0007.87
2024-01-24 07:43:00,SystemResetWarning,0825.9,5.00,000.00,024.3,023.2,000.0,032.7,025.6,16.8,0002.6,0008.65,0016.35,0007.85
2024-01-24 07:44:00,SystemResetWarning,0825.9,5.00,000.00,024.3,023.2,000.0,032.7,025.6,16.8,0002.5,0008.62,0016.20,0007.83
2024-01-24 07:45:00,SystemResetWarning,0825.9,5.00,000.00,024.3,023.2,000.0,032.7,025.6,16.8,0002.1,0008.59,0016.84,0007.82
2024-01-24 07:46:00,SystemResetWarning,0825.9,5.00,000.00,024.3,023.2,000.0,032.7,025.6,16.8,0001.9,0008.63,0017.97,0007.84
2024-01-24 07:47:00,SystemResetWarning,0825.9,5.00,000.00,024.3,023.2,000.0,032.7,025.6,16.8,0002.0,0008.67,0018.30,0007.87
2024-01-24 07:48:00,SystemResetWarning,0825.9,5.00,000.00,024.3,023.2,000.0,032.7,025.6,16.8,0002.0,0008.70,0018.63,0007.91
2024-01-24 07:49:00,SystemResetWarning,0825.9,5.00,000.00,024.3,023.2,000.0,032.7,025.6,16.8,0002.0,0008.75,0019.63,0007.93
2024-01-24 07:50:00,SystemResetWarning,0825.9,5.01,000.00,024.3,023.2,000.0,032.7,025.6,16.8,0002.2,0008.80,0019.19,0007.97
2024-01-24 07:51:00,SystemResetWarning,0825.9,5.00,000.00,024.3,023.1,000.0,032.7,025.6,16.8,0001.9,0008.83,0018.40,0008.00
2024-01-24 07:52:00,SystemResetWarning,0825.9,5.00,000.00,024.3,023.1,000.0,032.6,025.6,16.8,0001.9,0008.84,0018.08,0008.03
2024-01-24 07:53:00,SystemResetWarning,0825.9,5.00,000.00,024.2,023.1,000.0,032.6,025.6,16.8,0001.8,0008.88,0017.48,0008.06
2024-01-24 07:54:00,SystemResetWarning,0825.9,5.00,000.00,024.2,023.1,000.0,032.6,025.6,16.9,0001.7,0008.93,0017.82,0008.08
2024-01-24 07:55:00,SystemResetWarning,0825.9,5.00,000.00,024.2,023.1,000.0,032.6,025.5,16.9,0001.5,0008.96,0017.86,0008.11
2024-01-24 07:56:00,SystemResetWarning,0825.9,5.00,000.00,024.2,023.1,000.0,032.6,025.5,16.9,0001.4,0008.94,0017.21,0008.14
2024-01-24 07:57:00,SystemResetWarning,0825.9,5.00,000.00,024.2,023.1,000.0,032.6,025.5,16.9,0001.5,0008.94,0015.92,0008.14
2024-01-24 07:58:00,SystemResetWarning,0825.9,4.99,000.00,024.2,023.1,000.0,032.6,025.5,16.9,0001.6,0008.94,0015.50,0008.13
2024-01-24 07:59:00,SystemResetWarning,0825.9,4.99,000.00,024.2,023.1,000.0,032.6,025.5,16.9,0001.5,0008.94,0015.59,0008.11
